Wind_Speed
9 7 6 9 3 4 4 9 6 6 8 26 32 23 17 16 2 9 15 16 13 5 7 9 7 7 6 6 6 5 5 5 6 6 6 6 7 6 7 7 7 7 8 8 8 8 9 9 10
8 4 5 5 3 2 6 9 4 13 27 36 32 23 16 8 17 18 13 10 9 7 7 9 8 6 6 5 4 4 3 4 4 4 5 6 6 7 7 7 6 6 7 8 9 9 9 10 11
10 7 3 4 3 5 1 4 9 12 21 16 11 22 8 4 11 12 16 8 7 8 9 9 7 5 5 4 3 3 3 3 3 4 4 5 5 6 6 7 7 7 7 8 8 9 10 11 12
8 4 6 1 9 14 10 7 8 9 16 16 27 13 10 10 9 13 15 10 6 11 10 9 7 6 5 4 3 3 3 3 3 3 4 5 5 5 5 6 7 8 8 8 8 10 10 11 11
12 5 2 4 7 6 6 17 15 6 10 14 14 8 8 20 21 17 14 11 6 12 11 9 7 6 5 4 4 3 3 3 3 3 4 5 6 7 8 7 8 9 11 11 12 12 13 14 14
6 2 3 5 11 6 3 17 17 19 22 18 18 13 7 22 20 20 17 16 14 13 13 11 8 7 7 7 6 5 4 4 4 4 4 5 6 7 9 10 11 12 12 13 14 14 14 15 15
7 1 6 11 13 3 4 2 6 14 18 12 22 6 14 22 17 21 20 14 13 13 11 11 8 8 8 8 7 6 6 6 6 5 4 3 3 4 5 7 8 9 11 12 13 14 16 16 16
13 3 6 6 4 6 9 6 20 19 7 15 8 9 10 27 20 17 16 16 13 12 10 9 8 10 9 7 6 5 5 6 6 6 4 4 4 4 4 4 5 8 9 11 12 14 15 16 17
20 2 5 6 10 9 18 8 21 16 18 12 7 18 25 31 22 17 15 13 13 12 11 10 9 9 9 7 6 4 7 8 8 8 7 8 8 7 7 7 6 6 7 8 10 13 14 15 15
4 3 6 5 8 4 9 20 14 9 13 13 26 28 35 28 21 19 15 13 13 14 14 13 13 11 10 8 8 9 11 11 10 9 8 8 9 9 8 7 7 9 9 11 12 14 14 14 15
9 8 5 15 8 7 12 13 12 23 4 13 30 34 33 29 25 21 14 11 12 13 15 15 13 11 11 10 10 9 6 6 7 7 8 9 10 10 11 11 11 13 13 15 15 15 15 16 17
5 18 10 15 4 7 1 14 8 8 10 24 27 33 33 31 31 23 16 14 14 15 15 15 13 11 11 10 7 6 4 5 6 8 9 10 12 13 13 14 14 15 17 18 18 18 19 18 18
4 7 8 19 2 4 10 4 13 21 33 27 28 28 30 29 24 19 16 15 14 15 15 15 14 12 11 8 6 3 3 5 8 9 10 11 12 14 14 15 17 17 17 18 20 21 21 22 23
17 17 13 14 10 6 4 10 12 20 32 33 31 26 25 25 24 22 19 17 16 15 15 14 13 12 10 6 3 2 3 6 8 11 12 14 15 16 15 16 17 17 17 18 20 22 23 22 23
15 9 8 11 14 5 12 6 10 34 33 32 28 27 26 24 22 20 19 18 16 15 15 14 13 11 9 5 2 1 3 6 8 10 12 14 15 16 17 18 20 21 20 20 20 20 20 21 23
7 7 5 8 11 18 11 11 10 35 35 32 31 28 24 22 18 19 19 17 16 17 16 15 14 11 8 5 3 1 3 5 7 9 12 14 15 15 16 17 18 19 20 22 22 24 25 25 26
5 6 9 11 18 10 11 5 9 36 32 29 32 30 28 24 24 24 21 19 17 17 17 15 14 11 9 6 4 2 2 6 9 11 13 15 16 17 17 17 18 18 19 20 22 23 24 26 27
6 8 10 14 13 13 14 10 14 34 31 30 35 33 32 31 29 24 22 21 19 18 16 15 14 12 10 8 5 1 3 5 8 11 14 15 16 16 17 17 18 19 20 21 22 24 24 26 28
12 15 14 12 14 10 14 16 17 28 26 25 30 37 36 34 29 26 24 23 20 17 17 15 14 13 11 8 5 3 1 3 7 10 13 15 17 17 17 17 18 19 20 22 24 24 23 24 28
10 12 16 9 11 9 7 8 17 20 27 37 38 35 39 38 33 30 27 22 17 17 16 15 15 13 11 8 7 5 4 1 6 10 12 14 15 17 18 20 21 21 21 22 26 27 24 22 24
7 8 8 7 14 15 8 6 8 20 26 27 31 38 39 44 40 36 30 24 19 17 15 15 14 13 11 9 6 5 3 1 4 8 10 11 12 15 16 19 20 21 21 22 25 26 21 22 19
10 8 9 7 7 9 5 11 8 6 21 21 30 36 39 45 44 42 35 28 23 19 15 14 12 13 12 9 7 6 3 1 4 7 8 9 11 13 17 19 19 20 22 22 21 18 18 17 17
15 9 11 4 6 6 8 5 6 13 16 18 23 33 41 47 50 45 38 31 26 22 20 16 14 13 12 9 6 4 1 2 4 6 7 9 9 13 16 19 21 21 19 17 20 19 17 15 15
6 7 4 4 2 12 5 6 7 13 13 24 27 29 40 46 49 45 37 31 28 25 23 20 17 14 12 10 8 5 2 2 4 6 8 9 10 12 16 18 21 21 16 16 18 18 16 13 14
5 3 2 3 3 9 13 9 16 7 11 13 23 30 39 49 50 46 41 38 34 29 26 22 18 16 13 10 7 4 3 3 5 6 8 8 9 11 15 19 21 22 15 13 17 16 14 13 18
16 8 6 7 6 4 9 7 8 4 7 21 40 41 44 48 50 49 45 43 38 31 26 23 20 16 13 11 8 5 3 3 6 6 7 8 9 11 15 18 20 17 13 15 18 14 15 18 16
9 18 9 13 14 3 4 6 5 4 5 9 17 31 40 46 48 49 47 43 38 32 25 23 22 17 14 11 8 6 4 5 6 6 6 8 10 10 13 17 18 17 17 16 16 12 17 17 21
20 12 7 5 12 13 12 5 7 2 4 3 5 21 26 36 39 44 45 42 37 31 25 26 23 19 15 12 9 7 6 5 5 6 7 9 9 9 12 15 17 19 20 16 14 14 16 22 26
5 13 5 3 6 12 4 6 6 4 8 9 7 21 30 34 39 43 43 41 36 32 31 29 24 20 17 14 11 8 7 6 6 7 8 8 8 9 11 14 18 21 19 19 13 15 21 26 29
5 4 3 4 7 3 9 14 5 6 9 11 13 27 33 39 42 41 42 41 38 37 35 30 28 24 20 16 11 9 7 6 6 7 7 8 8 9 11 15 17 18 20 17 15 18 22 28 32
Wind_Direction
325 310 317 309 44 80 261 268 224 92 70 81 94 101 98 52 92 136 132 125 133 159 159 150 134 127 112 101 90 83 71 62 52 45 46 36 33 31 34 30 19 8 5 2 7 8 2 356 355
337 28 292 279 95 355 281 241 70 84 114 100 82 85 63 74 80 117 111 134 159 164 149 142 132 119 108 95 87 80 69 53 38 27 29 21 14 10 13 13 9 3 356 350 350 353 349 348 348
350 308 297 156 197 210 169 70 93 100 103 91 103 75 60 55 85 111 116 151 147 158 131 115 106 93 77 72 68 55 45 36 17 9 9 3 360 360 1 354 350 346 344 341 340 338 339 339 340
327 311 257 115 263 274 169 119 115 90 69 75 106 78 74 123 105 121 143 149 133 126 122 113 105 95 86 72 59 48 40 27 6 352 345 342 341 345 345 336 334 327 323 321 321 320 320 323 326
322 265 258 259 277 269 144 132 129 78 65 78 92 111 89 118 117 128 146 159 166 133 124 119 111 99 84 70 62 52 41 24 6 355 347 343 337 335 329 320 317 317 317 318 316 315 314 313 313
293 251 314 301 307 191 68 144 146 108 114 104 88 96 119 134 132 154 162 159 148 142 141 132 119 102 88 84 83 80 70 55 37 29 17 1 351 343 336 331 336 330 322 315 312 311 309 309 309
221 75 253 279 283 241 136 86 93 106 87 53 122 91 142 146 148 175 178 174 146 147 143 134 128 114 101 94 87 76 64 56 55 50 46 37 20 332 344 338 335 328 325 315 311 303 302 300 300
294 140 283 253 286 277 152 103 88 102 85 98 113 146 169 158 158 163 154 153 148 140 140 137 130 117 114 107 92 81 67 62 60 49 39 6 10 22 339 329 345 347 350 336 311 307 303 300 299
280 353 276 282 288 203 144 109 82 102 98 73 77 147 162 151 159 146 139 141 144 142 142 141 137 130 125 125 116 82 79 78 72 70 52 40 36 31 358 348 344 327 315 314 315 304 299 299 298
180 199 250 269 308 10 111 110 116 98 86 82 94 119 141 143 151 145 153 151 150 146 143 147 150 148 138 137 116 105 99 92 74 60 44 29 19 11 3 351 339 314 314 319 317 320 308 301 297
250 239 256 293 340 347 147 131 128 128 131 168 146 142 145 151 154 164 172 168 160 151 151 152 152 149 145 138 125 112 90 77 58 35 20 5 0 354 344 341 331 320 323 320 323 320 320 315 309
269 258 264 288 24 360 297 149 70 116 180 163 153 148 148 161 164 169 175 173 163 159 156 151 155 152 139 131 124 98 69 28 10 4 355 345 344 345 343 339 328 326 332 327 327 321 320 317 314
301 255 285 297 188 300 329 48 115 108 134 143 144 155 163 160 164 175 181 173 171 168 160 156 153 147 141 140 121 95 26 359 347 339 344 343 343 343 342 334 328 334 328 324 318 316 318 320 317
297 301 310 309 286 190 272 136 105 133 137 141 154 159 165 167 167 166 179 182 182 173 166 160 157 153 147 150 131 61 355 341 334 334 345 345 348 351 350 337 336 337 332 325 322 321 321 322 319
307 316 293 287 282 233 219 269 143 148 146 147 156 164 165 170 178 185 184 185 187 177 169 165 162 160 159 164 150 21 323 329 333 345 347 345 347 349 346 338 339 337 337 331 329 325 322 320 318
307 311 282 266 268 262 190 235 142 158 154 158 164 168 173 180 183 174 181 195 191 187 180 174 170 168 172 173 190 263 315 329 341 349 348 347 347 348 341 338 337 335 332 330 328 328 328 325 324
251 245 257 265 238 231 182 219 163 169 163 164 167 171 174 174 176 175 182 191 195 192 185 178 173 175 178 178 197 238 340 351 349 349 346 351 349 346 340 339 335 333 330 326 328 327 328 325 321
242 238 252 251 258 227 222 205 151 172 171 170 173 174 178 178 180 182 188 197 201 199 188 180 177 177 174 182 201 202 356 355 349 349 341 347 345 344 342 340 337 336 333 332 329 329 328 328 326
246 266 269 268 282 306 245 198 166 176 173 172 175 180 183 184 181 184 191 199 202 199 190 181 180 181 185 187 184 165 135 11 345 342 338 344 340 342 342 340 339 341 337 334 331 333 329 330 332
257 255 267 276 296 303 284 192 184 180 187 184 185 182 183 181 182 184 191 199 204 195 192 185 181 186 186 181 166 147 109 348 349 338 339 340 340 346 341 341 342 337 336 334 332 336 342 346 355
281 276 276 280 297 290 272 254 227 197 195 194 190 188 184 182 183 182 185 193 202 199 195 195 185 182 187 183 164 149 160 312 318 324 345 347 345 335 333 333 329 333 336 335 331 334 351 351 359
247 260 289 281 290 271 182 246 249 211 197 197 193 188 182 183 186 185 188 191 197 200 192 205 195 176 184 176 170 170 170 278 335 332 343 332 339 328 325 325 331 339 336 334 340 349 351 356 347
270 226 254 264 285 323 284 270 233 232 201 197 200 189 184 182 185 187 188 194 198 198 187 201 199 187 178 179 175 165 152 322 326 326 321 334 326 319 322 323 327 335 335 338 342 349 357 357 353
250 256 255 254 252 260 196 240 239 232 238 206 199 188 179 177 180 189 189 191 192 196 198 200 201 195 191 179 175 180 203 281 301 308 317 327 318 318 316 318 323 336 336 341 342 348 357 355 351
273 175 262 297 232 250 196 227 243 259 234 219 190 186 174 174 179 184 183 183 185 193 198 195 200 201 197 191 187 191 227 276 293 313 317 313 314 319 316 319 328 333 333 333 326 350 350 341 338
225 210 178 205 224 275 216 238 255 288 266 207 188 178 169 170 179 182 182 184 186 193 199 189 199 208 201 198 198 204 239 282 299 305 304 304 310 317 310 317 325 333 328 328 327 347 348 335 338
214 224 213 239 256 306 230 296 283 120 45 50 163 161 166 171 176 178 180 186 188 190 196 186 195 209 209 207 208 219 246 277 289 293 296 303 312 314 308 318 324 326 329 321 324 343 340 335 339
218 201 226 218 228 239 252 248 245 260 185 101 57 169 162 163 165 171 182 187 186 191 189 182 198 209 217 214 215 227 250 270 282 278 293 301 314 306 313 315 319 323 323 332 352 353 333 340 343
308 205 210 173 200 231 248 255 221 183 178 149 128 149 155 160 163 174 183 185 186 187 185 190 194 198 209 221 222 232 250 262 261 271 290 301 313 314 314 311 324 334 348 347 353 342 337 340 341
345 318 250 188 247 221 223 238 113 124 145 158 162 165 171 173 173 179 181 182 186 184 185 190 192 197 213 220 228 236 243 243 252 270 285 306 320 321 317 320 330 344 354 351 341 340 337 340 342
Height
1506 1506 1504 1504 1516 1516 1519 1497 1475 1471 1477 1485 1486 1491 1508 1513 1516 1537 1537 1537 1538 1541 1543 1543 1543 1543 1542 1542 1542 1542 1542 1542 1542 1543 1542 1543 1542 1543 1542 1541 1541 1542 1541 1540 1539 1538 1538 1537 1537
1505 1504 1504 1503 1519 1528 1512 1477 1485 1476 1482 1482 1487 1498 1505 1518 1520 1526 1532 1534 1537 1540 1541 1541 1542 1541 1541 1541 1541 1542 1542 1541 1542 1543 1541 1542 1543 1543 1542 1541 1541 1541 1540 1540 1539 1538 1537 1536 1536
1504 1504 1505 1506 1515 1519 1509 1481 1478 1477 1480 1480 1493 1502 1513 1523 1524 1527 1531 1533 1536 1537 1538 1539 1539 1540 1540 1540 1541 1541 1541 1541 1542 1542 1541 1542 1542 1541 1541 1541 1540 1540 1539 1539 1538 1537 1536 1535 1534
1504 1504 1503 1509 1512 1494 1488 1479 1475 1477 1481 1481 1491 1512 1522 1525 1527 1529 1531 1533 1535 1535 1536 1537 1538 1539 1539 1540 1540 1540 1540 1541 1541 1541 1541 1541 1540 1540 1540 1539 1540 1539 1538 1538 1537 1536 1535 1534 1533
1503 1503 1509 1506 1501 1490 1478 1474 1476 1481 1487 1490 1489 1516 1524 1528 1529 1531 1531 1533 1534 1534 1535 1535 1536 1538 1538 1539 1539 1540 1540 1540 1540 1540 1540 1540 1539 1539 1539 1538 1538 1538 1537 1537 1536 1536 1534 1533 1532
1503 1500 1515 1517 1503 1479 1475 1473 1473 1480 1488 1491 1501 1512 1527 1529 1530 1530 1530 1531 1531 1531 1532 1534 1536 1537 1538 1539 1539 1539 1540 1539 1540 1539 1539 1539 1539 1538 1538 1538 1537 1537 1536 1536 1535 1534 1533 1531 1530
1501 1507 1511 1505 1501 1482 1476 1474 1476 1480 1486 1493 1497 1513 1526 1528 1530 1530 1531 1530 1530 1531 1532 1534 1535 1537 1538 1539 1539 1539 1540 1539 1539 1538 1537 1537 1537 1537 1537 1536 1535 1534 1534 1533 1532 1531 1530 1528 1527
1499 1499 1502 1496 1496 1490 1473 1475 1477 1480 1490 1495 1498 1509 1522 1524 1527 1528 1530 1530 1531 1532 1533 1535 1535 1536 1537 1538 1539 1538 1538 1538 1538 1538 1537 1536 1536 1536 1535 1535 1534 1533 1532 1530 1529 1528 1527 1526 1525
1495 1504 1508 1498 1489 1477 1470 1474 1479 1486 1488 1494 1498 1501 1508 1519 1524 1526 1527 1528 1530 1531 1532 1533 1535 1535 1536 1537 1536 1537 1537 1537 1537 1537 1537 1536 1536 1536 1535 1534 1532 1531 1529 1528 1526 1525 1523 1522 1521
1493 1503 1497 1486 1481 1475 1471 1474 1479 1488 1494 1501 1502 1506 1512 1518 1522 1523 1524 1526 1528 1529 1531 1532 1532 1533 1534 1535 1536 1536 1536 1537 1537 1537 1537 1536 1535 1534 1533 1532 1531 1529 1527 1526 1525 1523 1521 1519 1517
1489 1494 1488 1483 1482 1480 1475 1477 1480 1486 1497 1498 1500 1506 1511 1517 1521 1522 1524 1525 1527 1528 1529 1531 1532 1533 1534 1534 1535 1536 1537 1537 1537 1537 1536 1535 1534 1534 1532 1531 1529 1527 1526 1524 1522 1520 1518 1516 1514
1491 1482 1484 1481 1480 1479 1479 1477 1484 1484 1486 1494 1501 1506 1510 1514 1517 1518 1521 1523 1525 1527 1529 1530 1532 1533 1533 1535 1535 1535 1535 1535 1535 1535 1534 1533 1532 1531 1530 1528 1526 1525 1523 1521 1519 1516 1515 1513 1511
1485 1479 1479 1480 1478 1478 1478 1481 1482 1487 1486 1496 1504 1510 1511 1512 1514 1516 1519 1521 1523 1526 1528 1529 1530 1532 1533 1534 1534 1534 1534 1533 1534 1533 1533 1532 1531 1529 1528 1526 1524 1523 1521 1519 1516 1513 1512 1510 1508
1484 1481 1479 1478 1478 1475 1478 1484 1479 1494 1491 1496 1503 1509 1511 1512 1513 1515 1518 1519 1521 1524 1526 1528 1529 1530 1531 1532 1534 1533 1533 1532 1532 1532 1530 1529 1528 1526 1525 1523 1521 1520 1518 1515 1513 1511 1508 1506 1504
1484 1483 1478 1476 1476 1476 1476 1481 1486 1486 1491 1496 1503 1507 1511 1512 1514 1515 1517 1517 1519 1522 1524 1526 1527 1528 1529 1530 1532 1532 1531 1531 1530 1530 1528 1527 1526 1524 1522 1520 1519 1517 1514 1512 1511 1509 1506 1503 1500
1488 1485 1491 1476 1475 1473 1476 1487 1483 1484 1487 1493 1498 1503 1507 1511 1513 1515 1515 1516 1517 1520 1521 1523 1525 1526 1527 1529 1530 1530 1529 1529 1529 1529 1527 1527 1526 1524 1521 1520 1518 1516 1512 1509 1507 1504 1502 1499 1495
1488 1501 1491 1480 1469 1470 1473 1478 1472 1480 1483 1488 1493 1499 1504 1508 1512 1513 1514 1514 1515 1518 1520 1522 1523 1525 1526 1526 1527 1527 1527 1527 1527 1527 1526 1524 1523 1522 1520 1518 1516 1514 1510 1507 1505 1503 1499 1496 1493
1495 1492 1482 1480 1464 1464 1468 1469 1468 1474 1478 1482 1488 1494 1499 1503 1505 1509 1513 1513 1514 1516 1519 1520 1521 1523 1523 1524 1525 1525 1525 1525 1525 1524 1524 1523 1522 1520 1519 1516 1514 1512 1508 1506 1503 1500 1498 1493 1489
1480 1480 1480 1470 1460 1462 1456 1457 1465 1468 1475 1480 1484 1488 1492 1497 1501 1505 1508 1510 1512 1514 1516 1518 1518 1519 1521 1522 1523 1524 1525 1524 1524 1523 1522 1521 1520 1519 1517 1515 1512 1510 1506 1504 1501 1499 1495 1491 1486
1475 1477 1473 1463 1456 1457 1455 1454 1460 1463 1464 1465 1470 1478 1483 1491 1496 1500 1504 1508 1512 1514 1514 1516 1516 1517 1518 1520 1521 1522 1523 1523 1523 1522 1522 1520 1518 1516 1514 1512 1510 1508 1505 1502 1498 1496 1492 1490 1487
1472 1475 1472 1470 1459 1453 1458 1460 1454 1457 1459 1465 1468 1471 1477 1481 1488 1494 1498 1503 1508 1511 1513 1513 1515 1515 1516 1517 1519 1520 1520 1521 1522 1522 1521 1519 1517 1515 1514 1512 1509 1507 1504 1502 1498 1495 1493 1489 1490
1474 1464 1464 1464 1468 1475 1455 1473 1456 1450 1456 1458 1460 1465 1469 1475 1481 1486 1491 1496 1502 1508 1511 1512 1513 1514 1514 1516 1517 1518 1519 1520 1520 1520 1519 1518 1516 1514 1513 1511 1508 1506 1502 1498 1495 1492 1491 1491 1489
1463 1457 1462 1461 1468 1470 1463 1474 1455 1444 1449 1448 1451 1456 1459 1464 1469 1477 1483 1489 1496 1502 1506 1509 1510 1511 1512 1514 1515 1516 1517 1518 1518 1518 1517 1517 1515 1512 1510 1507 1507 1505 1502 1499 1495 1492 1490 1490 1489
1451 1456 1457 1460 1468 1472 1464 1469 1450 1443 1434 1435 1438 1446 1450 1456 1464 1471 1478 1485 1489 1497 1501 1505 1507 1508 1510 1511 1512 1513 1514 1515 1514 1514 1514 1513 1512 1510 1509 1506 1505 1503 1499 1496 1495 1493 1492 1489 1487
1452 1460 1484 1489 1488 1473 1450 1459 1435 1426 1420 1417 1429 1438 1444 1449 1457 1464 1471 1477 1483 1489 1494 1499 1502 1505 1506 1508 1510 1510 1512 1512 1511 1511 1511 1510 1509 1507 1506 1504 1502 1501 1497 1493 1491 1490 1490 1487 1485
1445 1456 1480 1485 1483 1466 1442 1451 1435 1418 1415 1408 1412 1423 1434 1443 1450 1456 1463 1468 1476 1483 1490 1495 1498 1502 1504 1506 1507 1508 1509 1509 1509 1509 1508 1507 1505 1505 1503 1501 1501 1499 1496 1495 1489 1487 1486 1484 1481
1443 1444 1442 1454 1450 1466 1454 1435 1419 1416 1416 1415 1417 1423 1430 1436 1443 1450 1459 1464 1472 1480 1487 1493 1496 1500 1502 1503 1504 1505 1505 1506 1507 1506 1505 1504 1503 1503 1500 1500 1497 1494 1491 1489 1487 1484 1483 1480 1478
1428 1428 1451 1450 1464 1469 1445 1446 1441 1422 1421 1420 1421 1425 1431 1436 1443 1450 1456 1461 1469 1476 1483 1489 1493 1497 1500 1501 1501 1502 1502 1502 1503 1503 1502 1501 1500 1498 1498 1497 1494 1494 1489 1485 1483 1482 1480 1478 1475
1431 1426 1431 1432 1441 1451 1461 1449 1418 1418 1416 1421 1423 1426 1431 1436 1441 1447 1453 1460 1466 1471 1477 1484 1488 1492 1495 1499 1499 1499 1500 1500 1500 1501 1499 1499 1497 1496 1495 1493 1491 1489 1484 1482 1481 1479 1478 1475 1471
1428 1425 1427 1445 1443 1451 1442 1430 1416 1414 1416 1418 1422 1425 1429 1433 1439 1445 1451 1456 1462 1468 1473 1478 1483 1488 1491 1495 1498 1498 1497 1497 1498 1498 1497 1496 1494 1495 1495 1492 1488 1487 1483 1479 1479 1477 1476 1472 1466